Flag for Canada Weather past 2 weeks in Kenora, Ontario, Canada

Now
48 °F

Clear.


Feels Like: 45 °F
Forecast: 55 / 71 °F
Wind: 7 mph from Southwest

Location: Kenora

Current Time: Sep 22, 2014 at 7:18:30 AM

Latest Report: Sep 22, 2014 at 6:00 AM


Visibility: 15 mi

Pressure: 30.11 "Hg

Humidity: 100%

Dew point: 48 °F

Location of KenoraLocation

Historic Weather in Kenora — Graph

°F

Kenora temperature yesterday

Maximum temperature yesterday: 59 °F (at 3:00 PM)
Minimum temperature yesterday: 45 °F (at 7:00 AM)
Average temperature yesterday: 52 °F

Past Weeks' High & Low Weather Summary

 TemperatureHumidityPressure
High75 °F (Sep 8, 3:00 PM)100% (Sep 7, 6:00 AM)30.44 "Hg (Sep 7, 6:00 AM)
Low36 °F (Sep 18, 2:00 AM)39% (Sep 15, 3:00 PM)29.50 "Hg (Sep 19, 2:00 PM)
Average51 °F76%30.03 "Hg
* Reported Sep 7 6:00 AM — Sep 22 6:00 AM, Kenora, Weather by CustomWeather, © 2014

Note: Actual official high and low records may vary slightly from our data, if they occured in-between our weather recording intervals... More about our weather records

Advertising

Kenora weather history for previous 24 hours

 ConditionsComfort  
Time TempWeatherWind HumidityBarometerVisibility
6:00 AM
Sep 22
48 °FClear.7 mph100%30.11 "Hg15 mi
5:00 AM48 °FClear.7 mph94%30.11 "Hg15 mi
4:00 AM50 °FClear.9 mph94%30.11 "Hg15 mi
3:00 AM50 °FClear.9 mph94%30.12 "Hg15 mi
2:00 AM50 °FClear.7 mph94%30.13 "Hg15 mi
1:00 AM50 °FClear.7 mph94%30.14 "Hg15 mi
12:00 AM50 °FClear.8 mph94%30.14 "Hg15 mi
11:00 PM
Sep 21
50 °FClear.7 mph100%30.16 "Hg15 mi
10:00 PM52 °FPassing clouds.6 mph88%30.17 "Hg15 mi
9:00 PM54 °FPassing clouds.2 mph82%30.17 "Hg15 mi
8:00 PM55 °FPartly sunny.3 mph77%30.18 "Hg15 mi
7:00 PM55 °FPartly sunny.5 mph77%30.18 "Hg15 mi
6:00 PM57 °FBroken clouds.8 mph77%30.18 "Hg15 mi
5:00 PM57 °FPartly sunny.6 mph77%30.18 "Hg15 mi
4:00 PM57 °FPartly sunny.8 mph72%30.18 "Hg15 mi
3:00 PM59 °FPartly sunny.8 mph68%30.18 "Hg15 mi
2:00 PM57 °FPartly sunny.7 mph72%30.19 "Hg15 mi
1:00 PM57 °FPartly sunny.6 mph72%30.19 "Hg15 mi
12:00 PM55 °FBroken clouds.6 mph77%30.20 "Hg15 mi
11:00 AM52 °FBroken clouds.3 mph88%30.20 "Hg15 mi
10:00 AM50 °FBroken clouds.2 mph94%30.18 "Hg15 mi
9:00 AM48 °FBroken clouds.No wind100%30.15 "Hg15 mi
8:00 AM46 °FPassing clouds.2 mph100%30.13 "Hg15 mi
7:00 AM45 °FPassing clouds.5 mph100%30.09 "Hg15 mi
Weather by CustomWeather, © 2014

See weather overviewHow to use our weather pages